Starlink 11264

operational
NORAD ID: 60906 Int'l Des: 2024-154 Owner: SPXS Country: US Constellation: starlink
LEOCIRCULAR

关于 Starlink 11264

正在加载描述...

实时位置

正在加载3D地球...

即将过境

高度历史

Altitude vs Time

uPlot chart will show altitude changes over time

两行轨道根数

1 60906U 24154D 25351.70070098 .00000090 00000-0 55976-5 0 9990
2 60906 53.1589 175.6965 0000627 88.1244 271.9846 15.69712669 75635
Epoch: Dec 17, 2025 • Age: 19 hours

当前状态

高度 375.7 km
速度 7.68 km/s
星下点 -46.06°S, 132.18°E
发射日期 Aug 31, 2024
运行时间 1.2 years
类型 internet

技术详情

分类 Payload
质量 960.00 kg
干质量 910.00 kg
总质量 960.00 kg
长度 0.30 m
直径 4.10 m
跨度 29.00 m
形状 Box + pan
制造商 SPXS
平台类型 Starlink V2MD
阶段状态 In Orbit
所有者/国家 SPXS/US

大型星座

Loading constellations...